sat.trackr.live / text

‹ back to catalog

XINGYUN-2 01

NORAD 45602 · 2020-028A

PAYLOAD ACTIVE UNKNOWN

§ Identity

Operator
Country
PRC
Launch date
2020-05-12
Launch site
JSC
Launch vehicle
Mass (kg)
RCS (m²)

External: N2YO · Heavens-Above · Gunter

§ Orbital elements

Epoch: 2026-05-25T05:45:54.285696Z

Period
95.26 min
Inclination
97.4870°
Eccentricity
0.0007485
Mean motion
15.11696839 rev/d
Perigee alt
525.9 km
Apogee alt
536.2 km
Semi-major
6,909.2 km
B*
1.4764e-4
RAAN
138.0990°
Arg perigee
287.9842°
Mean anomaly
72.0572°
Rev number
33,137

§ Raw data

XINGYUN-2 011 45602U 20028A   26145.24021164  .00002451  00000+0  14764-3 0  99932 45602  97.4870 138.0990 0007485 287.9842  72.0572 15.11696839331377

JSON: /api/v1/satellites/45602 · /tle

For live sub-satellite position, see the globe view (requires WebGL).

§ Visibility from observer

Set your observer location to see the next 7 days of passes ≥ 10°. The values pass through the URL so the page stays shareable.

No JS? Fill the form by hand. The geolocation button needs JavaScript.

§ Radio — SatNOGS DB

ModeDescriptionDownlinkUplink
BPSK Mode L - IOT 1.522 GHz
FM Mode U center 272.500 MHz

2 transmitters · refreshed weekly from db.satnogs.org